Year,Month,Day,Hour,Minute,Value (Times are PST for temperature in C)
2017,05,26,00,00,12.60
2017,05,26,00,01,12.60
2017,05,26,00,02,12.60
2017,05,26,00,03,12.70
2017,05,26,00,04,12.70
2017,05,26,00,05,12.70
2017,05,26,00,06,12.80
2017,05,26,00,07,12.80
2017,05,26,00,08,12.80
2017,05,26,00,09,12.90
2017,05,26,00,10,12.90
2017,05,26,00,11,12.80
2017,05,26,00,12,12.80
2017,05,26,00,13,12.70
2017,05,26,00,14,12.60
2017,05,26,00,15,12.50
2017,05,26,00,16,12.40
2017,05,26,00,17,12.30
2017,05,26,00,18,12.30
2017,05,26,00,19,12.30
2017,05,26,00,20,12.30
2017,05,26,00,21,12.30
2017,05,26,00,22,12.30
2017,05,26,00,23,12.30
2017,05,26,00,24,12.20
2017,05,26,00,25,12.20
2017,05,26,00,26,12.10
2017,05,26,00,27,12.10
2017,05,26,00,28,12.10
2017,05,26,00,29,12.10
2017,05,26,00,30,12.00
2017,05,26,00,31,12.00
2017,05,26,00,32,11.90
2017,05,26,00,33,11.90
2017,05,26,00,34,11.80
2017,05,26,00,35,11.80
2017,05,26,00,36,11.70
2017,05,26,00,37,11.70
2017,05,26,00,38,11.70
2017,05,26,00,39,11.70
2017,05,26,00,40,11.60
2017,05,26,00,41,11.60
2017,05,26,00,42,11.60
2017,05,26,00,43,11.50
2017,05,26,00,44,11.50
2017,05,26,00,45,11.50
2017,05,26,00,46,11.40
2017,05,26,00,47,11.40
2017,05,26,00,48,11.40
2017,05,26,00,49,11.40
2017,05,26,00,50,11.40
2017,05,26,00,51,11.40
2017,05,26,00,52,11.40
2017,05,26,00,53,11.50
2017,05,26,00,54,11.50
2017,05,26,00,55,11.50
2017,05,26,00,56,11.60
2017,05,26,00,57,11.70
2017,05,26,00,58,11.70
2017,05,26,00,59,11.80
2017,05,26,01,00,11.80
2017,05,26,01,01,11.80
2017,05,26,01,02,11.90
2017,05,26,01,03,11.90
2017,05,26,01,04,11.90
2017,05,26,01,05,11.90
2017,05,26,01,06,11.90
2017,05,26,01,07,11.90
2017,05,26,01,08,11.90
2017,05,26,01,09,11.90
2017,05,26,01,10,11.80
2017,05,26,01,11,11.80
2017,05,26,01,12,11.80
2017,05,26,01,13,11.70
2017,05,26,01,14,11.70
2017,05,26,01,15,11.70
2017,05,26,01,16,11.70
2017,05,26,01,17,11.70
2017,05,26,01,18,11.70
2017,05,26,01,19,11.70
2017,05,26,01,20,11.60
2017,05,26,01,21,11.60
2017,05,26,01,22,11.60
2017,05,26,01,23,11.50
2017,05,26,01,24,11.40
2017,05,26,01,25,11.40
2017,05,26,01,26,11.40
2017,05,26,01,27,11.30
2017,05,26,01,28,11.30
2017,05,26,01,29,11.20
2017,05,26,01,30,11.20
2017,05,26,01,31,11.20
2017,05,26,01,32,11.20
2017,05,26,01,33,11.10
2017,05,26,01,34,11.10
2017,05,26,01,35,11.10
2017,05,26,01,36,11.10
2017,05,26,01,37,11.10
2017,05,26,01,38,11.10
2017,05,26,01,39,11.10
2017,05,26,01,40,11.10
2017,05,26,01,41,11.10
2017,05,26,01,42,11.10
2017,05,26,01,43,11.00
2017,05,26,01,44,11.00
2017,05,26,01,45,10.90
2017,05,26,01,46,10.90
2017,05,26,01,47,10.90
2017,05,26,01,48,10.90
2017,05,26,01,49,10.90
2017,05,26,01,50,10.80
2017,05,26,01,51,10.80
2017,05,26,01,52,10.80
2017,05,26,01,53,10.80
2017,05,26,01,54,10.70
2017,05,26,01,55,10.70
2017,05,26,01,56,10.70
2017,05,26,01,57,10.70
2017,05,26,01,58,10.70
2017,05,26,01,59,10.70
2017,05,26,02,00,10.70
2017,05,26,02,01,10.70
2017,05,26,02,02,10.70
2017,05,26,02,03,10.60
2017,05,26,02,04,10.60
2017,05,26,02,05,10.60
2017,05,26,02,06,10.60
2017,05,26,02,07,10.60
2017,05,26,02,08,10.60
2017,05,26,02,09,10.60
2017,05,26,02,10,10.60
2017,05,26,02,11,10.60
2017,05,26,02,12,10.60
2017,05,26,02,13,10.60
2017,05,26,02,14,10.60
2017,05,26,02,15,10.60
2017,05,26,02,16,10.60
2017,05,26,02,17,10.60
2017,05,26,02,18,10.60
2017,05,26,02,19,10.60
2017,05,26,02,20,10.60
2017,05,26,02,21,10.50
2017,05,26,02,22,10.50
2017,05,26,02,23,10.40
2017,05,26,02,24,10.40
2017,05,26,02,25,10.40
2017,05,26,02,26,10.40
2017,05,26,02,27,10.40
2017,05,26,02,28,10.40
2017,05,26,02,29,10.30
2017,05,26,02,30,10.30
2017,05,26,02,31,10.30
2017,05,26,02,32,10.30
2017,05,26,02,33,10.30
2017,05,26,02,34,10.30
2017,05,26,02,35,10.20
2017,05,26,02,36,10.20
2017,05,26,02,37,10.20
2017,05,26,02,38,10.20
2017,05,26,02,39,10.20
2017,05,26,02,40,10.20
2017,05,26,02,41,10.20
2017,05,26,02,42,10.20
2017,05,26,02,43,10.20
2017,05,26,02,44,10.20
2017,05,26,02,45,10.20
2017,05,26,02,46,10.10
2017,05,26,02,47,10.10
2017,05,26,02,48,10.10
2017,05,26,02,49,10.10
2017,05,26,02,50,10.10
2017,05,26,02,51,10.10
2017,05,26,02,52,10.10
2017,05,26,02,53,10.10
2017,05,26,02,54,10.10
2017,05,26,02,55,10.10
2017,05,26,02,56,10.10
2017,05,26,02,57,10.10
2017,05,26,02,58,10.10
2017,05,26,02,59,10.10
2017,05,26,03,00,10.10
2017,05,26,03,01,10.10
2017,05,26,03,02,10.10
2017,05,26,03,03,10.10
2017,05,26,03,04,10.10
2017,05,26,03,05,10.10
2017,05,26,03,06,10.10
2017,05,26,03,07,10.10
2017,05,26,03,08,10.10
2017,05,26,03,09,10.10
2017,05,26,03,10,10.10
2017,05,26,03,11,10.10
2017,05,26,03,12,10.10
2017,05,26,03,13,10.10
2017,05,26,03,14,10.10
2017,05,26,03,15,10.10
2017,05,26,03,16,10.10
2017,05,26,03,17,10.10
2017,05,26,03,18,10.10
2017,05,26,03,19,10.10
2017,05,26,03,20,10.10
2017,05,26,03,21,10.10
2017,05,26,03,22,10.10
2017,05,26,03,23,10.10
2017,05,26,03,24,10.10
2017,05,26,03,25,10.10
2017,05,26,03,26,10.10
2017,05,26,03,27,10.10
2017,05,26,03,28,10.10
2017,05,26,03,29,10.10
2017,05,26,03,30,10.10
2017,05,26,03,31,10.10
2017,05,26,03,32,10.10
2017,05,26,03,33,10.10
2017,05,26,03,34,10.10
2017,05,26,03,35,10.10
2017,05,26,03,36,10.10
2017,05,26,03,37,10.10
2017,05,26,03,38,10.10
2017,05,26,03,39,10.10
2017,05,26,03,40,10.10
2017,05,26,03,41,10.10
2017,05,26,03,42,10.10
2017,05,26,03,43,10.10
2017,05,26,03,44,10.10
2017,05,26,03,45,10.10
2017,05,26,03,46,10.10
2017,05,26,03,47,10.00
2017,05,26,03,48,10.00
2017,05,26,03,49,10.00
2017,05,26,03,50,10.00
2017,05,26,03,51,10.00
2017,05,26,03,52,10.00
2017,05,26,03,53,10.00
2017,05,26,03,54,10.00
2017,05,26,03,55,10.00
2017,05,26,03,56,9.90
2017,05,26,03,57,9.90
2017,05,26,03,58,9.90
2017,05,26,03,59,9.90
2017,05,26,04,00,9.90
2017,05,26,04,01,9.90
2017,05,26,04,02,9.90
2017,05,26,04,03,9.90
2017,05,26,04,04,9.90
2017,05,26,04,05,9.90
2017,05,26,04,06,9.90
2017,05,26,04,07,9.90
2017,05,26,04,08,9.90
2017,05,26,04,09,9.90
2017,05,26,04,10,9.90
2017,05,26,04,11,9.90
2017,05,26,04,12,9.90
2017,05,26,04,13,9.90
2017,05,26,04,14,9.90
2017,05,26,04,15,9.90
2017,05,26,04,16,9.90
2017,05,26,04,17,9.90
2017,05,26,04,18,9.90
2017,05,26,04,19,9.90
2017,05,26,04,20,9.90
2017,05,26,04,21,9.90
2017,05,26,04,22,9.90
2017,05,26,04,23,9.90
2017,05,26,04,24,9.90
2017,05,26,04,25,9.90
2017,05,26,04,26,9.90
2017,05,26,04,27,9.90
2017,05,26,04,28,9.90
2017,05,26,04,29,9.90
2017,05,26,04,30,9.90
2017,05,26,04,31,9.90
2017,05,26,04,32,9.90
2017,05,26,04,33,9.90
2017,05,26,04,34,9.90
2017,05,26,04,35,9.90
2017,05,26,04,36,10.00
2017,05,26,04,37,10.00
2017,05,26,04,38,10.10
2017,05,26,04,39,10.10
2017,05,26,04,40,10.20
2017,05,26,04,41,10.30
2017,05,26,04,42,10.40
2017,05,26,04,43,10.50
2017,05,26,04,44,10.60
2017,05,26,04,45,10.70
2017,05,26,04,46,10.80
2017,05,26,04,47,10.80
2017,05,26,04,48,10.90
2017,05,26,04,49,11.00
2017,05,26,04,50,11.10
2017,05,26,04,51,11.20
2017,05,26,04,52,11.20
2017,05,26,04,53,11.20
2017,05,26,04,54,11.20
2017,05,26,04,55,11.30
2017,05,26,04,56,11.30
2017,05,26,04,57,11.30
2017,05,26,04,58,11.40
2017,05,26,04,59,11.40
2017,05,26,05,00,11.40
2017,05,26,05,01,11.40
2017,05,26,05,02,11.40
2017,05,26,05,03,11.40
2017,05,26,05,04,11.40
2017,05,26,05,05,11.40
2017,05,26,05,06,11.40
2017,05,26,05,07,11.30
2017,05,26,05,08,11.30
2017,05,26,05,09,11.30
2017,05,26,05,10,11.30
2017,05,26,05,11,11.30
2017,05,26,05,12,11.30
2017,05,26,05,13,11.30
2017,05,26,05,14,11.30
2017,05,26,05,15,11.30
2017,05,26,05,16,11.30
2017,05,26,05,17,11.20
2017,05,26,05,18,11.30
2017,05,26,05,19,11.30
2017,05,26,05,20,11.30
2017,05,26,05,21,11.30
2017,05,26,05,22,11.40
2017,05,26,05,23,11.40
2017,05,26,05,24,11.40
2017,05,26,05,25,11.40
2017,05,26,05,26,11.40
2017,05,26,05,27,11.50
2017,05,26,05,28,11.50
2017,05,26,05,29,11.50
2017,05,26,05,30,11.60
2017,05,26,05,31,11.60
2017,05,26,05,32,11.60
2017,05,26,05,33,11.60
2017,05,26,05,34,11.60
2017,05,26,05,35,11.60
2017,05,26,05,36,11.60
2017,05,26,05,37,11.70
2017,05,26,05,38,11.70
2017,05,26,05,39,11.70
2017,05,26,05,40,11.70
2017,05,26,05,41,11.70
2017,05,26,05,42,11.70
2017,05,26,05,43,11.70
2017,05,26,05,44,11.70
2017,05,26,05,45,11.80
2017,05,26,05,46,11.80
2017,05,26,05,47,11.80
2017,05,26,05,48,11.80
2017,05,26,05,49,11.80
2017,05,26,05,50,11.80
2017,05,26,05,51,11.90
2017,05,26,05,52,11.90
2017,05,26,05,53,11.90
2017,05,26,05,54,11.90
2017,05,26,05,55,12.00
2017,05,26,05,56,12.00
2017,05,26,05,57,12.10
2017,05,26,05,58,12.10
2017,05,26,05,59,12.10
2017,05,26,06,00,12.10
2017,05,26,06,01,12.20
2017,05,26,06,02,12.20
2017,05,26,06,03,12.20
2017,05,26,06,04,12.20
2017,05,26,06,05,12.30
2017,05,26,06,06,12.30
2017,05,26,06,07,12.30
2017,05,26,06,08,12.30
2017,05,26,06,09,12.40
2017,05,26,06,10,12.40
2017,05,26,06,11,12.40
2017,05,26,06,12,12.50
2017,05,26,06,13,12.50
2017,05,26,06,14,12.60
2017,05,26,06,15,12.60
2017,05,26,06,16,12.60
2017,05,26,06,17,12.70
2017,05,26,06,18,12.70
2017,05,26,06,19,12.80
2017,05,26,06,20,12.80
2017,05,26,06,21,12.80
2017,05,26,06,22,12.90
2017,05,26,06,23,12.90
2017,05,26,06,24,13.00
2017,05,26,06,25,13.00
2017,05,26,06,26,13.10
2017,05,26,06,27,13.10
2017,05,26,06,28,13.20
2017,05,26,06,29,13.20
2017,05,26,06,30,13.20
2017,05,26,06,31,13.20
2017,05,26,06,32,13.20
2017,05,26,06,33,13.20
2017,05,26,06,34,13.30
2017,05,26,06,35,13.30
2017,05,26,06,36,13.30
2017,05,26,06,37,13.30
2017,05,26,06,38,13.30
2017,05,26,06,39,13.30
2017,05,26,06,40,13.40
2017,05,26,06,41,13.40
2017,05,26,06,42,13.50
2017,05,26,06,43,13.60
2017,05,26,06,44,13.70
2017,05,26,06,45,13.80
2017,05,26,06,46,13.80
2017,05,26,06,47,13.90
2017,05,26,06,48,13.90
2017,05,26,06,49,14.00
2017,05,26,06,50,14.10
2017,05,26,06,51,14.10
2017,05,26,06,52,14.20
2017,05,26,06,53,14.20
2017,05,26,06,54,14.30
2017,05,26,06,55,14.40
2017,05,26,06,56,14.40
2017,05,26,06,57,14.40
2017,05,26,06,58,14.40
2017,05,26,06,59,14.20
2017,05,26,07,00,14.10
2017,05,26,07,01,14.10
2017,05,26,07,02,14.00
2017,05,26,07,03,13.90
2017,05,26,07,04,13.80
2017,05,26,07,05,13.80
2017,05,26,07,06,13.70
2017,05,26,07,07,13.70
2017,05,26,07,08,13.70
2017,05,26,07,09,13.70
2017,05,26,07,10,13.70
2017,05,26,07,11,13.70
2017,05,26,07,12,13.70
2017,05,26,07,13,13.70
2017,05,26,07,14,13.70
2017,05,26,07,15,13.70
2017,05,26,07,16,13.70
2017,05,26,07,17,13.70
2017,05,26,07,18,13.70
2017,05,26,07,19,13.80
2017,05,26,07,20,13.80
2017,05,26,07,21,13.80
2017,05,26,07,22,13.80
2017,05,26,07,23,13.80
2017,05,26,07,24,13.80
2017,05,26,07,25,13.80
2017,05,26,07,26,13.90
2017,05,26,07,27,13.90
2017,05,26,07,28,14.00
2017,05,26,07,29,14.00
2017,05,26,07,30,14.10
2017,05,26,07,31,14.20
2017,05,26,07,32,14.30
2017,05,26,07,33,14.30
2017,05,26,07,34,14.40
2017,05,26,07,35,14.60
2017,05,26,07,36,14.60
2017,05,26,07,37,14.70
2017,05,26,07,38,14.80
2017,05,26,07,39,14.80
2017,05,26,07,40,14.80
2017,05,26,07,41,14.80
2017,05,26,07,42,14.80
2017,05,26,07,43,14.90
2017,05,26,07,44,14.90
2017,05,26,07,45,14.90
2017,05,26,07,46,14.90
2017,05,26,07,47,15.00
2017,05,26,07,48,15.10
2017,05,26,07,49,15.10
2017,05,26,07,50,15.10
2017,05,26,07,51,15.10
2017,05,26,07,52,15.10
2017,05,26,07,53,15.20
2017,05,26,07,54,15.20
2017,05,26,07,55,15.20
2017,05,26,07,56,15.20
2017,05,26,07,57,15.30
2017,05,26,07,58,15.30
2017,05,26,07,59,15.30
2017,05,26,08,00,15.30
2017,05,26,08,01,15.30
2017,05,26,08,02,15.30
2017,05,26,08,03,15.20
2017,05,26,08,04,15.20
2017,05,26,08,05,15.30
2017,05,26,08,06,15.30
2017,05,26,08,07,15.30
2017,05,26,08,08,15.30
2017,05,26,08,09,15.30
2017,05,26,08,10,15.30
2017,05,26,08,11,15.20
2017,05,26,08,12,15.10
2017,05,26,08,13,15.00
2017,05,26,08,14,15.00
2017,05,26,08,15,15.00
2017,05,26,08,16,15.00
2017,05,26,08,17,15.10
2017,05,26,08,18,15.10
2017,05,26,08,19,15.10
2017,05,26,08,20,15.10
2017,05,26,08,21,15.10
2017,05,26,08,22,15.10
2017,05,26,08,23,15.20
2017,05,26,08,24,15.20
2017,05,26,08,25,15.20
2017,05,26,08,26,15.20
2017,05,26,08,27,15.20
2017,05,26,08,28,15.20
2017,05,26,08,29,15.30
2017,05,26,08,30,15.30
2017,05,26,08,31,15.30
2017,05,26,08,32,15.40
2017,05,26,08,33,15.40
2017,05,26,08,34,15.40
2017,05,26,08,35,15.50
2017,05,26,08,36,15.50
2017,05,26,08,37,15.50
2017,05,26,08,38,15.50
2017,05,26,08,39,15.50
2017,05,26,08,40,15.50
2017,05,26,08,41,15.40
2017,05,26,08,42,15.40
2017,05,26,08,43,15.40
2017,05,26,08,44,15.40
2017,05,26,08,45,15.40
2017,05,26,08,46,15.40
2017,05,26,08,47,15.30
2017,05,26,08,48,15.30
2017,05,26,08,49,15.40
2017,05,26,08,50,15.40
2017,05,26,08,51,15.30
2017,05,26,08,52,15.20
2017,05,26,08,53,15.20
2017,05,26,08,54,15.20
2017,05,26,08,55,15.20
2017,05,26,08,56,15.20
2017,05,26,08,57,15.10
2017,05,26,08,58,15.10
2017,05,26,08,59,15.20
2017,05,26,09,00,15.20
2017,05,26,09,01,15.20
2017,05,26,09,02,15.20
2017,05,26,09,03,15.30
2017,05,26,09,04,15.30
2017,05,26,09,05,15.30
2017,05,26,09,06,15.30
2017,05,26,09,07,15.40
2017,05,26,09,08,15.40
2017,05,26,09,09,15.40
2017,05,26,09,10,15.40
2017,05,26,09,11,15.50
2017,05,26,09,12,15.50
2017,05,26,09,13,15.50
2017,05,26,09,14,15.50
2017,05,26,09,15,15.50
2017,05,26,09,16,15.60
2017,05,26,09,17,15.60
2017,05,26,09,18,15.70
2017,05,26,09,19,15.70
2017,05,26,09,20,15.70
2017,05,26,09,21,15.70
2017,05,26,09,22,15.70
2017,05,26,09,23,15.80
2017,05,26,09,24,15.80
2017,05,26,09,25,15.80
2017,05,26,09,26,15.80
2017,05,26,09,27,15.80
2017,05,26,09,28,15.80
2017,05,26,09,29,15.80
2017,05,26,09,30,15.80
2017,05,26,09,31,15.80
2017,05,26,09,32,15.70
2017,05,26,09,33,15.70
2017,05,26,09,34,15.70
2017,05,26,09,35,15.70
2017,05,26,09,36,15.70
2017,05,26,09,37,15.70
2017,05,26,09,38,15.70
2017,05,26,09,39,15.70
2017,05,26,09,40,15.70
2017,05,26,09,41,15.60
2017,05,26,09,42,15.60
2017,05,26,09,43,15.60
2017,05,26,09,44,15.70
2017,05,26,09,45,15.70
2017,05,26,09,46,15.80
2017,05,26,09,47,15.80
2017,05,26,09,48,15.90
2017,05,26,09,49,16.00
2017,05,26,09,50,16.00
2017,05,26,09,51,16.00
2017,05,26,09,52,16.10
2017,05,26,09,53,16.10
2017,05,26,09,54,16.10
2017,05,26,09,55,16.10
2017,05,26,09,56,16.20
2017,05,26,09,57,16.20
2017,05,26,09,58,16.20
2017,05,26,09,59,16.20
2017,05,26,10,00,16.20
2017,05,26,10,01,16.20
2017,05,26,10,02,16.20
2017,05,26,10,03,16.20
2017,05,26,10,04,16.20
2017,05,26,10,05,16.20
2017,05,26,10,06,16.20
2017,05,26,10,07,16.20
2017,05,26,10,08,16.10
2017,05,26,10,09,16.10
2017,05,26,10,10,16.10
2017,05,26,10,11,16.10
2017,05,26,10,12,16.10
2017,05,26,10,13,16.10
2017,05,26,10,14,16.10
2017,05,26,10,15,16.10
2017,05,26,10,16,16.10
2017,05,26,10,17,16.10
2017,05,26,10,18,16.10
2017,05,26,10,19,16.10
2017,05,26,10,20,16.10
2017,05,26,10,21,16.10
2017,05,26,10,22,16.10
2017,05,26,10,23,16.20
2017,05,26,10,24,16.30
2017,05,26,10,25,16.30
2017,05,26,10,26,16.40
2017,05,26,10,27,16.40
2017,05,26,10,28,16.50
2017,05,26,10,29,16.50
2017,05,26,10,30,16.60
2017,05,26,10,31,16.60
2017,05,26,10,32,16.60
2017,05,26,10,33,16.60
2017,05,26,10,34,16.60
2017,05,26,10,35,16.70
2017,05,26,10,36,16.70
2017,05,26,10,37,16.80
2017,05,26,10,38,16.90
2017,05,26,10,39,17.00
2017,05,26,10,40,17.00
2017,05,26,10,41,17.10
2017,05,26,10,42,17.20
2017,05,26,10,43,17.20
2017,05,26,10,44,17.20
2017,05,26,10,45,17.30
2017,05,26,10,46,17.30
2017,05,26,10,47,17.30
2017,05,26,10,48,17.30
2017,05,26,10,49,17.20
2017,05,26,10,50,17.20
2017,05,26,10,51,17.20
2017,05,26,10,52,17.20
2017,05,26,10,53,17.10
2017,05,26,10,54,17.10
2017,05,26,10,55,17.10
2017,05,26,10,56,17.00
2017,05,26,10,57,16.90
2017,05,26,10,58,16.90
2017,05,26,10,59,16.90
2017,05,26,11,00,16.80
2017,05,26,11,01,16.80
2017,05,26,11,02,16.80
2017,05,26,11,03,16.90
2017,05,26,11,04,17.00
2017,05,26,11,05,17.10
2017,05,26,11,06,17.10
2017,05,26,11,07,17.20
2017,05,26,11,08,17.20
2017,05,26,11,09,17.30
2017,05,26,11,10,17.30
2017,05,26,11,11,17.30
2017,05,26,11,12,17.30
2017,05,26,11,13,17.30
2017,05,26,11,14,17.30
2017,05,26,11,15,17.30
2017,05,26,11,16,17.30
2017,05,26,11,17,17.30
2017,05,26,11,18,17.40
2017,05,26,11,19,17.50
2017,05,26,11,20,17.60
2017,05,26,11,21,17.70
2017,05,26,11,22,17.80
2017,05,26,11,23,17.80
2017,05,26,11,24,17.80
2017,05,26,11,25,17.80
2017,05,26,11,26,17.80
2017,05,26,11,27,17.80
2017,05,26,11,28,17.80
2017,05,26,11,29,17.80
2017,05,26,11,30,17.70
2017,05,26,11,31,17.70
2017,05,26,11,32,17.70
2017,05,26,11,33,17.70
2017,05,26,11,34,17.70
2017,05,26,11,35,17.70
2017,05,26,11,36,17.70
2017,05,26,11,37,17.70
2017,05,26,11,38,17.80
2017,05,26,11,39,17.80
2017,05,26,11,40,17.80
2017,05,26,11,41,17.80
2017,05,26,11,42,17.80
2017,05,26,11,43,17.90
2017,05,26,11,44,17.90
2017,05,26,11,45,17.90
2017,05,26,11,46,17.90
2017,05,26,11,47,17.90
2017,05,26,11,48,17.90
2017,05,26,11,49,17.90
2017,05,26,11,50,17.90
2017,05,26,11,51,17.90
2017,05,26,11,52,17.90
2017,05,26,11,53,17.90
2017,05,26,11,54,17.90
2017,05,26,11,55,18.00
2017,05,26,11,56,18.00
2017,05,26,11,57,18.10
2017,05,26,11,58,18.10
2017,05,26,11,59,18.20
2017,05,26,12,00,18.30
2017,05,26,12,01,18.30
2017,05,26,12,02,18.40
2017,05,26,12,03,18.50
2017,05,26,12,04,18.50
2017,05,26,12,05,18.60
2017,05,26,12,06,18.60
2017,05,26,12,07,18.60
2017,05,26,12,08,18.60
2017,05,26,12,09,18.60
2017,05,26,12,10,18.60
2017,05,26,12,11,18.50
2017,05,26,12,12,18.40
2017,05,26,12,13,18.40
2017,05,26,12,14,18.30
2017,05,26,12,15,18.30
2017,05,26,12,16,18.30
2017,05,26,12,17,18.30
2017,05,26,12,18,18.30
2017,05,26,12,19,18.40
2017,05,26,12,20,18.40
2017,05,26,12,21,18.40
2017,05,26,12,22,18.40
2017,05,26,12,23,18.40
2017,05,26,12,24,18.40
2017,05,26,12,25,18.40
2017,05,26,12,26,18.50
2017,05,26,12,27,18.60
2017,05,26,12,28,18.60
2017,05,26,12,29,18.70
2017,05,26,12,30,18.80
2017,05,26,12,31,18.80
2017,05,26,12,32,18.80
2017,05,26,12,33,18.80
2017,05,26,12,34,18.90
2017,05,26,12,35,18.90
2017,05,26,12,36,19.00
2017,05,26,12,37,19.10
2017,05,26,12,38,19.10
2017,05,26,12,39,19.20
2017,05,26,12,40,19.30
2017,05,26,12,41,19.30
2017,05,26,12,42,19.40
2017,05,26,12,43,19.40
2017,05,26,12,44,19.40
2017,05,26,12,45,19.40
2017,05,26,12,46,19.50
2017,05,26,12,47,19.50
2017,05,26,12,48,19.60
2017,05,26,12,49,19.60
2017,05,26,12,50,19.60
2017,05,26,12,51,19.70
2017,05,26,12,52,19.70
2017,05,26,12,53,19.70
2017,05,26,12,54,19.70
2017,05,26,12,55,19.70
2017,05,26,12,56,19.70
2017,05,26,12,57,19.70
2017,05,26,12,58,19.70
2017,05,26,12,59,19.70
2017,05,26,13,00,19.70
2017,05,26,13,01,19.80
2017,05,26,13,02,19.90
2017,05,26,13,03,19.90
2017,05,26,13,04,19.90
2017,05,26,13,05,19.90
2017,05,26,13,06,19.90
2017,05,26,13,07,19.90
2017,05,26,13,08,19.90
2017,05,26,13,09,20.00
2017,05,26,13,10,20.00
2017,05,26,13,11,20.00
2017,05,26,13,12,20.00
2017,05,26,13,13,20.10
2017,05,26,13,14,20.10
2017,05,26,13,15,20.10
2017,05,26,13,16,20.00
2017,05,26,13,17,19.90
2017,05,26,13,18,19.90
2017,05,26,13,19,19.80
2017,05,26,13,20,19.80
2017,05,26,13,21,19.90
2017,05,26,13,22,19.90
2017,05,26,13,23,20.00
2017,05,26,13,24,20.00
2017,05,26,13,25,20.10
2017,05,26,13,26,20.10
2017,05,26,13,27,20.10
2017,05,26,13,28,20.10
2017,05,26,13,29,20.20
2017,05,26,13,30,20.20
2017,05,26,13,31,20.20
2017,05,26,13,32,20.20
2017,05,26,13,33,20.30
2017,05,26,13,34,20.30
2017,05,26,13,35,20.40
2017,05,26,13,36,20.40
2017,05,26,13,37,20.40
2017,05,26,13,38,20.50
2017,05,26,13,39,20.50
2017,05,26,13,40,20.50
2017,05,26,13,41,20.50
2017,05,26,13,42,20.60
2017,05,26,13,43,20.60
2017,05,26,13,44,20.60
2017,05,26,13,45,20.70
2017,05,26,13,46,20.70
2017,05,26,13,47,20.70
2017,05,26,13,48,20.80
2017,05,26,13,49,20.80
2017,05,26,13,50,20.80
2017,05,26,13,51,20.90
2017,05,26,13,52,20.90
2017,05,26,13,53,20.90
2017,05,26,13,54,20.90
2017,05,26,13,55,20.90
2017,05,26,13,56,21.00
2017,05,26,13,57,21.00
2017,05,26,13,58,21.10
2017,05,26,13,59,21.10
2017,05,26,14,00,21.10
2017,05,26,14,01,21.20
2017,05,26,14,02,21.20
2017,05,26,14,03,21.20
2017,05,26,14,04,21.20
2017,05,26,14,05,21.20
2017,05,26,14,06,21.20
2017,05,26,14,07,21.30
2017,05,26,14,08,21.40
2017,05,26,14,09,21.40
2017,05,26,14,10,21.40
2017,05,26,14,11,21.40
2017,05,26,14,12,21.40
2017,05,26,14,13,21.30
2017,05,26,14,14,21.30
2017,05,26,14,15,21.20
2017,05,26,14,16,21.20
2017,05,26,14,17,21.20
2017,05,26,14,18,21.10
2017,05,26,14,19,21.00
2017,05,26,14,20,21.00
2017,05,26,14,21,21.00
2017,05,26,14,22,21.00
2017,05,26,14,23,21.00
2017,05,26,14,24,21.00
2017,05,26,14,25,20.90
2017,05,26,14,26,21.00
2017,05,26,14,27,21.00
2017,05,26,14,28,21.00
2017,05,26,14,29,21.00
2017,05,26,14,30,21.10
2017,05,26,14,31,21.10
2017,05,26,14,32,21.20
2017,05,26,14,33,21.20
2017,05,26,14,34,21.30
2017,05,26,14,35,21.30
2017,05,26,14,36,21.30
2017,05,26,14,37,21.40
2017,05,26,14,38,21.40
2017,05,26,14,39,21.40
2017,05,26,14,40,21.40
2017,05,26,14,41,21.40
2017,05,26,14,42,21.40
2017,05,26,14,43,21.40
2017,05,26,14,44,21.40
2017,05,26,14,45,21.40
2017,05,26,14,46,21.40
2017,05,26,14,47,21.30
2017,05,26,14,48,21.30
2017,05,26,14,49,21.30
2017,05,26,14,50,21.30
2017,05,26,14,51,21.30
2017,05,26,14,52,21.40
2017,05,26,14,53,21.50
2017,05,26,14,54,21.60
2017,05,26,14,55,21.60
2017,05,26,14,56,21.70
2017,05,26,14,57,21.80
2017,05,26,14,58,21.90
2017,05,26,14,59,21.90
2017,05,26,15,00,22.00
2017,05,26,15,01,22.10
2017,05,26,15,02,22.10
2017,05,26,15,03,22.10
2017,05,26,15,04,22.10
2017,05,26,15,05,22.00
2017,05,26,15,06,22.00
2017,05,26,15,07,22.00
2017,05,26,15,08,21.90
2017,05,26,15,09,21.90
2017,05,26,15,10,22.00
2017,05,26,15,11,22.00
2017,05,26,15,12,22.00
2017,05,26,15,13,22.00
2017,05,26,15,14,22.00
2017,05,26,15,15,22.10
2017,05,26,15,16,22.10
2017,05,26,15,17,22.10
2017,05,26,15,18,22.10
2017,05,26,15,19,22.10
2017,05,26,15,20,22.10
2017,05,26,15,21,22.10
2017,05,26,15,22,22.10
2017,05,26,15,23,22.10
2017,05,26,15,24,22.00
2017,05,26,15,25,22.00
2017,05,26,15,26,21.90
2017,05,26,15,27,21.90
2017,05,26,15,28,21.90
2017,05,26,15,29,21.90
2017,05,26,15,30,21.90
2017,05,26,15,31,21.90
2017,05,26,15,32,21.80
2017,05,26,15,33,21.70
2017,05,26,15,34,21.70
2017,05,26,15,35,21.70
2017,05,26,15,36,21.60
2017,05,26,15,37,21.60
2017,05,26,15,38,21.50
2017,05,26,15,39,21.50
2017,05,26,15,40,21.40
2017,05,26,15,41,21.40
2017,05,26,15,42,21.40
2017,05,26,15,43,21.40
2017,05,26,15,44,21.40
2017,05,26,15,45,21.40
2017,05,26,15,46,21.40
2017,05,26,15,47,21.40
2017,05,26,15,48,21.40
2017,05,26,15,49,21.40
2017,05,26,15,50,21.50
2017,05,26,15,51,21.50
2017,05,26,15,52,21.50
2017,05,26,15,53,21.40
2017,05,26,15,54,21.40
2017,05,26,15,55,21.40
2017,05,26,15,56,21.40
2017,05,26,15,57,21.40
2017,05,26,15,58,21.50
2017,05,26,15,59,21.60
2017,05,26,16,00,21.70
2017,05,26,16,01,21.70
2017,05,26,16,02,21.80
2017,05,26,16,03,21.80
2017,05,26,16,04,21.80
2017,05,26,16,05,21.70
2017,05,26,16,06,21.60
2017,05,26,16,07,21.40
2017,05,26,16,08,21.30
2017,05,26,16,09,21.20
2017,05,26,16,10,21.10
2017,05,26,16,11,21.10
2017,05,26,16,12,21.10
2017,05,26,16,13,21.10
2017,05,26,16,14,21.10
2017,05,26,16,15,21.20
2017,05,26,16,16,21.20
2017,05,26,16,17,21.30
2017,05,26,16,18,21.30
2017,05,26,16,19,21.30
2017,05,26,16,20,21.40
2017,05,26,16,21,21.50
2017,05,26,16,22,21.50
2017,05,26,16,23,21.60
2017,05,26,16,24,21.50
2017,05,26,16,25,21.50
2017,05,26,16,26,21.60
2017,05,26,16,27,21.60
2017,05,26,16,28,21.60
2017,05,26,16,29,21.60
2017,05,26,16,30,21.70
2017,05,26,16,31,21.70
2017,05,26,16,32,21.70
2017,05,26,16,33,21.70
2017,05,26,16,34,21.70
2017,05,26,16,35,21.80
2017,05,26,16,36,22.00
2017,05,26,16,37,22.20
2017,05,26,16,38,22.50
2017,05,26,16,39,22.70
2017,05,26,16,40,22.90
2017,05,26,16,41,23.20
2017,05,26,16,42,23.40
2017,05,26,16,43,23.50
2017,05,26,16,44,23.60
2017,05,26,16,45,23.70
2017,05,26,16,46,23.80
2017,05,26,16,47,23.80
2017,05,26,16,48,23.80
2017,05,26,16,49,23.90
2017,05,26,16,50,23.90
2017,05,26,16,51,23.90
2017,05,26,16,52,23.90
2017,05,26,16,53,23.90
2017,05,26,16,54,23.90
2017,05,26,16,55,23.90
2017,05,26,16,56,23.90
2017,05,26,16,57,24.00
2017,05,26,16,58,24.00
2017,05,26,16,59,24.00
2017,05,26,17,00,23.90
2017,05,26,17,01,23.80
2017,05,26,17,02,23.70
2017,05,26,17,03,23.60
2017,05,26,17,04,23.50
2017,05,26,17,05,23.50
2017,05,26,17,06,23.40
2017,05,26,17,07,23.30
2017,05,26,17,08,23.30
2017,05,26,17,09,23.20
2017,05,26,17,10,23.20
2017,05,26,17,11,23.20
2017,05,26,17,12,23.20
2017,05,26,17,13,23.10
2017,05,26,17,14,23.10
2017,05,26,17,15,23.00
2017,05,26,17,16,23.00
2017,05,26,17,17,23.00
2017,05,26,17,18,23.00
2017,05,26,17,19,23.00
2017,05,26,17,20,23.00
2017,05,26,17,21,23.00